Weather in Belyov

Russia / Tula Oblast     53°48′35″N   36°07′48″E
temp.,
°C
wind,
m/s
gust,
m/s
humid.,
%
clouds,
%
prec.,
mm/h
press.,
hPa
HPBL,
m
17 may, mon
mon1700:00+14e227836 0.0 101320
03:00+13ene378582 0.0 1012109
06:00+14e51490100 0.6 1011322
09:00+20e7108385 1.3 1010465
12:00+24se710615 0.0 1009881
15:00+25ese7126262 0.0 10081430
18:00+22ese714675 0.0 1007699
21:00+19ese7177253 0.0 1007523
18 may, tue
tue1800:00+18se614755 0.0 1007394
03:00+15ese4108574 0.0 1007210
06:00+15ese488863 0.0 1007190
09:00+20se587126 0.0 1006430
12:00+23se7125942 0.0 1006978
15:00+24se61261100 0.0 10051446
18:00+22se5106972 0.1 1004618
21:00+17s6118976 1.0 1006469
19 may, wed
wed1900:00+15se6129280 0.6 1006517
03:00+13se499698 0.6 1006221
06:00+14se4995100 0.0 1007334
09:00+17se5985100 0.9 1006535
12:00+20sse576896 0.6 10061479
15:00+21sse576538 1.1 10061302
18:00+19sse367698 0.4 1006797
21:00+15se228798 0.5 100614
20 may, thu
thu2000:00+14e118957 0.0 100611
03:00+13nne0091100 0.0 100410
06:00+13se3697100 0.4 1004222
09:00+15sse568673 0.7 1004701
12:00+17s467686 0.4 1004870
15:00+16s7107849 1.6 1004623
18:00+16sse697982 0.7 1004921
21:00+11ssw6119394 1.5 1005565
21 may, fri
fri2100:00+10s71290100 0.1 1005742
03:00+8s81491100 0.1 1005788
06:00+9s81491100 0.0 1005880
09:00+11ssw91582100 0.2 10061594
12:00+9sw91486100 0.4 10081292
15:00+10sw81286100 0.4 10091120
18:00+8wsw71287100 0.1 10121204
21:00+9wsw61286100 0.1 1014915